Auction List: View Wednesday 2:00pm Results 10:30am Thursday

First   |   Prev   |   Record 1 - 92 of 92   |   Next   |   Last      
Lot  Number Item  Number Auction  Date Minimum  Bid High  Bid Buyer# Item  Description
1 81675 04/20/2017 $5.00 186 6929 Merlin  M33
2 81676 04/20/2017 $5.00 71 7376 Electrical  Parts
3 81408 04/20/2017 $5.00 4.99 Dilution  Control  System
4 81677 04/20/2017 $5.00 4.99 Phones
5 81582 04/20/2017 $5.00 4.99 Projection  Screen
6 81678 04/20/2017 $5.00 18 5687 Electrical  Boxes
7 20001001493 04/20/2017 $5.00 4.99 Chemiluminescence_workstation  Nucleovision  920
8 81679 04/20/2017 $5.00 58 5687 2  Speakers
9 20111000634 04/20/2017 $5.00 44 710 Projector_data  pt-d6000us
10 20111000638 04/20/2017 $5.00 66 710 Projector_data  pt-d6000us
11 81637 04/20/2017 $5.00 4.99 Sorval  centrifuge
12 81680 04/20/2017 $5.00 4.99 Smoke  Alarms
13 81681 04/20/2017 $5.00 78 5687 Blender  Bottoms
14 81682 04/20/2017 $5.00 28 5687 Enlarger
15 81638 04/20/2017 $5.00 6.50 6929 Golf  Club
16 81683 04/20/2017 $5.00 5.43 1158 Bulbs
17 81684 04/20/2017 $5.00 4.99 Light  box
18 81685 04/20/2017 $5.00 21 7376 Flo-tote
19 81686 04/20/2017 $5.00 5.08 5687 Floor  Closer
20 81687 04/20/2017 $5.00 18 5687 Ink
21 81688 04/20/2017 $5.00 4.99 Electrical  Parts
22 81689 04/20/2017 $5.00 72 7376 Gauges
23 81690 04/20/2017 $5.00 13 5687 Relays
24 81691 04/20/2017 $5.00 21.21 7216 Metal  parts
25 81692 04/20/2017 $5.00 7.87 6929 Elite  lighting  parts
26 81693 04/20/2017 $5.00 98 6929 Bodypacks
27 81694 04/20/2017 $5.00 4.99 Electrical  parts
28 19961009587 04/20/2017 $5.00 4.99 Thermal-cycle,48  well  sample  block  N801-0100
29 81643 04/20/2017 $5.00 4.99 Parts
30 81646 04/20/2017 $5.00 4.99 Printer
31 81664 04/20/2017 $5.00 4.99 Stamps
32 81695 04/20/2017 $5.00 4.99 3  Relays
33 81696 04/20/2017 $5.00 4.99 Yokogawa
34 81697 04/20/2017 $5.00 13.75 1195 Meter
35 81698 04/20/2017 $5.00 37.76 1195 Mikron
36 81699 04/20/2017 $5.00 37 5687 Apple  II  Card
37 81651 04/20/2017 $5.00 14.96 6929 3  lab  items
38 81700 04/20/2017 $5.00 13 5687 Phones
39 81701 04/20/2017 $5.00 27.50 6929 Shure  wireless  system
40 81702 04/20/2017 $5.00 4.99 Misc.  part
41 81703 04/20/2017 $5.00 4.99 Alarms
42 81704 04/20/2017 $5.00 9.00 1139 Slide  projector
43 81641 04/20/2017 $5.00 21 710 Dynatech  MR5000
44 81640 04/20/2017 $5.00 4.99 Solvent  Delivery  Module
45 81658 04/20/2017 $5.00 4.99 Drill
46 81639 04/20/2017 $5.00 4.99 Absorbance  Detector
47 81705 04/20/2017 $5.00 4.99 2  Amps
48 81661 04/20/2017 $5.00 4.99 Organizer
49 81706 04/20/2017 $5.00 6 5687 Ken-a-vision
50 81707 04/20/2017 $5.00 4.99 Elmo  OHP
51 81666 04/20/2017 $5.00 5.14 1158 2  Kangurus
52 81667 04/20/2017 $5.00 5.01 6929 Burner
53 81708 04/20/2017 $5.00 5.01 6929 Batteries
54 81709 04/20/2017 $5.00 4.99 2  Symbols
55 81710 04/20/2017 $5.00 4.99 Vent  panel
56 81711 04/20/2017 $5.00 4.99 Substitutor
57 81712 04/20/2017 $5.00 12.50 6929 Programmer
58 81713 04/20/2017 $5.00 11.79 7140 Cable
59 81714 04/20/2017 $5.00 26 710 CO2  Tanks
60 81715 04/20/2017 $5.00 4.99 Holmes  Dehumidifier
61 81716 04/20/2017 $5.00 28 710 Toner  (11)
62 81717 04/20/2017 $75 74.99 Symbol  Barcode  Scanner
63 81650 04/20/2017 $5.00 22 710 Toner
64 81718 04/20/2017 $5.00 47 7376 Scanners  and  Chargers
65 81719 04/20/2017 $5.00 4.99 Calculators
66 81720 04/20/2017 $5.00 4.99 Phones
67 81721 04/20/2017 $5.00 6.15 710 Light  Bulbs
68 81722 04/20/2017 $5.00 12 5687 Function  Generator
69 81723 04/20/2017 $5.00 4.99 Jigsaw
70 81724 04/20/2017 $5.00 14.47 3897 Power  Supply
71 81725 04/20/2017 $5.00 4.99 Misc.  box
72 81726 04/20/2017 $5.00 22.00 1139 Radiology  Monitor
73 81727 04/20/2017 $5.00 7.52 3897 Microphone
74 81669 04/20/2017 $5.00 5 5687 Water  Bath
75 81670 04/20/2017 $5.00 4.99 Centrifuge
76 81671 04/20/2017 $5.00 6 5687 Shaker
77 81728 04/20/2017 $5.00 21 7376 Robot
78 81729 04/20/2017 $5.00 4.99 Clicker
79 81730 04/20/2017 $5.00 161 710 Ricoh  MP  6500
80 81731 04/20/2017 $5.00 4.99 Misc.  box
81 81732 04/20/2017 $5.00 5.24 7140 Dewer
82 81733 04/20/2017 $5.00 158 5687 Servers  (11)
83 81734 04/20/2017 $5.00 23 5687 Isotemp
84 81735 04/20/2017 $5.00 11 5687 Laminaire
85 81673 04/20/2017 $5.00 4.99 Exam  bed
86 81674 04/20/2017 $5.00 5 7409 Exam  Bed
87 81419 04/20/2017 $5.00 9.78 1158 Light  bulbs
88 81736 04/20/2017 $5.00 23 5687 Lights
89 81737 04/20/2017 $5.00 5 7409 Misc.  pallet
90 81738 04/20/2017 $5.00 15 7409 Computer  parts
91 81739 04/20/2017 $5.00 12 5687 Computers
92 81740 04/20/2017 $5.00 12 5687 Computer  parts